Home > Weather > Lloydminster > Past weeks

Flag for Canada Weather for the Past 2 Weeks in Lloydminster, Alberta, Canada

Now
25 °F

Mostly cloudy.


Feels Like: 15 °F
Forecast: 19 / 34 °F
Wind: 9 mph from West

Location: Lloydminister

Current Time: Feb 8, 2016 at 6:02:01 AM

Latest Report: Feb 8, 2016 at 5:00 AM


Visibility: 9 mi

Pressure: 30.43 "Hg (28.03 "Hg at 648m altitude)

Humidity: 74%

Dew point: 18 °F

Location of LloydminsterLocation

Historic Weather in Lloydminster — Graph

°F

Lloydminster Temperature Yesterday

Maximum temperature yesterday: 30 °F (at 2:00 PM)
Minimum temperature yesterday: 18 °F (at 11:00 PM)
Average temperature yesterday: 25 °F

High & Low Weather Summary for the Past Weeks

 TemperatureHumidityPressure
High41 °F (Jan 28, 8:00 PM)100% (Jan 24, 10:00 AM)30.47 "Hg (Jan 24, 10:00 AM)
Low3 °F (Feb 4, 1:00 AM)52% (Feb 6, 1:00 PM)29.32 "Hg (Jan 28, 5:00 PM)
Average22 °F82%29.92 "Hg
* Reported Jan 24 4:02 AM — Feb 8 4:00 AM, Lloydminster, Weather by CustomWeather, © 2016

Note: Actual official high and low records may vary slightly from our data, if they occured in-between our weather recording intervals... More about our weather records

Advertising

Lloydminster Weather History for the Previous 24 Hours

 ConditionsComfort  
Time TempWeatherWind HumidityBarometerVisibility
4:00 AM
Mon, Feb 8
23 °FMostly cloudy.9 mph80%30.42 "Hg9 mi
3:00 AM21 °FMostly cloudy.8 mph80%30.43 "Hg9 mi
2:00 AM21 °FOvercast.9 mph80%30.44 "Hg9 mi
1:00 AM23 °FPassing clouds.10 mph74%30.44 "Hg9 mi
12:00 AM23 °FMostly cloudy.12 mph74%30.46 "Hg9 mi
11:00 PM
Sun, Feb 7
18 °FClear.13 mph86%30.45 "Hg9 mi
10:00 PM21 °FPassing clouds.13 mph74%30.45 "Hg15 mi
9:00 PM21 °FPassing clouds.14 mph80%30.47 "Hg15 mi
8:00 PM21 °FPassing clouds.14 mph80%30.47 "Hg15 mi
7:00 PM25 °FPassing clouds.14 mph74%30.45 "Hg15 mi
6:00 PM27 °FPassing clouds.17 mph74%30.44 "Hg15 mi
5:00 PM28 °FPassing clouds.15 mph69%30.44 "Hg15 mi
4:00 PM30 °FPassing clouds.16 mph64%30.41 "Hg15 mi
3:00 PM30 °FPartly sunny.15 mph64%30.41 "Hg15 mi
2:00 PM30 °FPartly sunny.16 mph64%30.38 "Hg15 mi
1:00 PM28 °FPartly sunny.18 mph69%30.38 "Hg15 mi
12:00 PM28 °FScattered clouds.17 mph64%30.37 "Hg15 mi
11:00 AM27 °FScattered clouds.17 mph69%30.37 "Hg15 mi
10:00 AM25 °FPassing clouds.18 mph69%30.35 "Hg15 mi
9:00 AM23 °FPassing clouds.17 mph74%30.33 "Hg15 mi
8:00 AM23 °FSunny.16 mph74%30.31 "Hg15 mi
7:00 AM23 °FPassing clouds.22 mph74%30.27 "Hg15 mi
6:00 AM23 °FClear.18 mph74%30.24 "Hg9 mi
Weather by CustomWeather, © 2016

See weather overviewHow to use our weather pages